Regional Weather Roundup
Issued by NWS

Home | Current Version | Previous Version | Graphics & Text | Print | Product List | Glossary On
Versions: 1 2 3 4 5 6 7 8 9 10 11 12 13 14 15 16 17 18 19 20 21 22 23 24 25 26 27 28 29 30 31 32 33 34 35 36 37 38 39 40 41 42 43 44 45 46 47 48 49 50
000
ASUS43 KLOT 201903
RWRIL

ILLINOIS REGIONAL WEATHER ROUNDUP
NATIONAL WEATHER SERVICE CHICAGO/ROMEOVILLE IL
100 PM CST MON NOV 20 2017

NOTE: "FAIR" INDICATES FEW OR NO CLOUDS BELOW 12,000 FEET WITH NO
SIGNIFICANT WEATHER AND/OR OBSTRUCTIONS TO VISIBILITY.

* THESE STATIONS ARE NOT UNDER NWS QUALITY CONTROL. THEY ALSO MAY NOT
  REPORT WEATHER SUCH AS PRECIPITATION OR FOG.

ILZ001-002-007-009-015-016-024-202000-
NORTHWEST ILLINOIS

CITY           SKY/WX    TMP DP  RH WIND       PRES   REMARKS
MOLINE         SUNNY     57  31  37 SW20G29   29.75F
STERLING*      SUNNY     54  35  48 SW8G17    29.78F
SAVANNA*       SUNNY     54  32  44 S10G16    29.75F
$$

ILZ003-004-008-010-011-017-018-202000-
NORTH CENTRAL ILLINOIS

CITY           SKY/WX    TMP DP  RH WIND       PRES   REMARKS
ROCKFORD       PTSUNNY   51  32  48 S18       29.78F
FREEPORT*      SUNNY     49  32  52 S16G23    29.76F
ROCHELLE*      SUNNY     51  33  50 S18G24    29.79F
DE KALB*       SUNNY     50  33  53 SW22G28   29.80F
PERU*          SUNNY     52  31  45 SW18      29.82F
$$

ILZ005-006-012>014-019>023-202000-
NORTHEAST ILLINOIS

CITY           SKY/WX    TMP DP  RH WIND       PRES   REMARKS
CHICAGO-OHARE  MOSUNNY   50  31  48 SW21G31   29.80F
CHICAGO-MIDWAY PTSUNNY   52  32  46 SW18G26   29.82F
AURORA         SUNNY     51  33  50 SW15G22   29.82F
LANSING*       SUNNY     50  36  59 SW17G32   29.86F
JOLIET*        SUNNY     52  32  47 SW16G26   29.85F
WAUKEGAN       SUNNY     50  32  50 SW18G26   29.76F
DUPAGE AIRPORT SUNNY     50  32  50 SW21G29   29.81F
KANKAKEE*      SUNNY     51  33  51 SW15G28   29.89F
WHEELING       SUNNY     51  30  44 SW18G26   29.81F
MORRIS*        SUNNY     51  34  53 SW17      29.84F
ROMEOVILLE*    SUNNY     51  33  52 SW21G28   29.84F
NORTHERLY ISL    N/A     50  28  43 S18         N/A
$$

LMZ740>746-202000-
SOUTHERN LAKE MICHIGAN

STATION/POSITION SKY/WX   TEMP    WIND        PRES    VSBY  WAVE
                          AIR SEA DIR/SP/G                  HT/PER
                          (F)     (DEG/KT/KT) (MB)    (MI)  (FT/S)
SOUTHERN BUOY              45 49  230/ 21/ 25 1010.2          6/ 7
HARRISON CRIB              49     220/ 24/ 28   N/A
BURNHAM HARBOR             50     180/  9/ 20   N/A
CALUMET HARBOR             48     190/ 17/ 25 1009.8F
BURNS HARBOR               50     210/ 23/ 28 1011.5F
MICHIGAN CITY              49     180/ 19/ 23   N/A
$$

ILZ025>027-034>036-040-047-049-050-058-095>099-202000-
WEST-CENTRAL ILLINOIS

CITY           SKY/WX    TMP DP  RH WIND       PRES   REMARKS
QUINCY         SUNNY     58  31  35 SW22G31   29.85F
GALESBURG*     SUNNY     56  36  47 S22G29    29.81F
MACOMB*        SUNNY     56  34  44 SW23G29   29.85F
JACKSONVILLE*  SUNNY     57  30  36 S18G25    29.89F
PITTSFIELD*    SUNNY     59  32  36 S18G24    29.90F
$$

ILZ028>032-037-038-041>044-048-051>054-059>061-202000-
CENTRAL ILLINOIS

CITY           SKY/WX    TMP DP  RH WIND       PRES   REMARKS
PONTIAC        CLOUDY    52  33  47 SW22G32   29.87F
BLOOMINGTON    SUNNY     51  33  50 SW24G33   29.87F
DECATUR        SUNNY     53  31  42 S25       29.94F
PEORIA         SUNNY     56  32  40 SW16      29.86F
LACON*         SUNNY     54  31  42 SW16G24   29.83F
LINCOLN*       SUNNY     55  34  44 S12G21    29.90F
SPRINGFIELD    SUNNY     58  34  40 S18       29.91F
TAYLORVILLE    SUNNY     54  35  48 S18G24    29.95F
$$

ILZ033-039-045-046-055>057-062-063-202000-
EAST-CENTRAL ILLINOIS

CITY           SKY/WX    TMP DP  RH WIND       PRES   REMARKS
CHAMPAIGN      SUNNY     52  35  52 S26G33    29.94F
DANVILLE*      SUNNY     49  32  52 S18G30    29.93F
RANTOUL*       SUNNY     52  36  54 S16G26    29.92F
MATTOON        SUNNY     50  33  52 S14G25    29.98F
PARIS*         SUNNY     49  34  56 S23       30.00F
$$

ILZ079-100>102-202000-
SOUTHWEST ILLINOIS

CITY           SKY/WX    TMP DP  RH WIND       PRES   REMARKS
ALTON          MOSUNNY   57  32  38 SW16G23   29.97F
BELLEVILLE     MOSUNNY   55  28  35 SW7       29.98F
CAHOKIA*       SUNNY     59  26  28 SW14G21   29.98F
SPARTA*        SUNNY     53  30  41 S15G23    30.03F
$$

ILZ064>066-069>071-074>076-080>082-084>086-088>090-092>094-202000-
SOUTH-CENTRAL ILLINOIS

CITY           SKY/WX    TMP DP  RH WIND       PRES   REMARKS
CARBONDALE     SUNNY     51  29  42 S18       30.07
CAIRO*         SUNNY     50  30  46 S9G16     30.12F
EFFINGHAM*     SUNNY     53  31  42 S9G20     30.03F
MARION         MOSUNNY   52  28  40 S14       30.09F
MT. VERNON     SUNNY     52  30  43 S17       30.05F
CENTRALIA*     SUNNY     53  32  44 S21       30.02F
SALEM*         SUNNY     54  29  38 S14G21    30.03F
METROPOLIS*    SUNNY     51  29  42 S12       30.13F
$$

ILZ067-068-072-073-078-083-087-091-202000-
SOUTHEAST ILLINOIS

CITY           SKY/WX    TMP DP  RH WIND       PRES   REMARKS
LAWRENCEVILLE  SUNNY     50  32  50 S18       30.08F
FLORA*         SUNNY     53  32  44 S16       30.04F
FAIRFIELD*     SUNNY     51  30  43 S6        30.06F
HARRISBURG*    SUNNY     52  30  43 SW10      30.09F
ROBINSON*      SUNNY     50  29  45 S16       30.06F
CARMI*         SUNNY     51  30  44 S10G17    30.09F
$$

ABBREVIATIONS USED IN REMARKS
   TC - TEMPERATURE IN CELSIUS
  WCI - WIND CHILL INDEX
   HX - HEAT INDEX
  VSB - VISIBILITY
$$





USA.gov is the U.S. government's official web portal to all federal, state and local government web resources and services.